Location: Caoba
(9.7667°N, 67.4833°W)
Time: 19:09:57
(UTC+00:00)

GOES 2 Rocket - Pass Details

Date: 10 December 2024
Orbit: 569 x 1662 km, 28.4° (Epoch: 14 January)

Event Time Altitude Azimuth Distance (km) Brightness Sun altitude
Rises 23:19:42 0° 228° (SW) 4,849 9.0 -16.7°
Reaches altitude 10° 23:23:16 10° 223° (SW) 3,794 8.1 -17.5°
Maximum altitude 23:32:44 50° 151° (SSE) 1,710 5.1 -19.7°
Enters shadow 23:36:52 29° 93° (E) 2,156 5.3 -20.7°
